Tracking 23439 objects as of 16-Jun-2021
HD Live streaming from Space Station
objects crossing your sky now

COSMOS 2268

Track COSMOS 2268 now!
10-day predictions
COSMOS 2268 is classified as:


NORAD ID: 22999
Int'l Code: 1994-011A
Perigee: 1,416.9 km
Apogee: 1,433.6 km
Inclination: 82.6 °
Period: 114.2 minutes
Semi major axis: 7796 km
RCS: 1.1684 m2 (large)
Launch date: February 12, 1994
Source: Commonwealth of Independent States (former USSR) (CIS)
Launch site: PLESETSK MISSILE AND SPACE COMPLEX (PKMTR)
aabbcc
Your satellite tracking list
Your tracking list is empty




NASA's NSSDC Master Catalog

Two Line Element Set (TLE):
1 22999U 94011A   21166.77637044  .00000030  00000-0  11217-3 0  9998
2 22999  82.5784  64.3977 0010694  20.3733  48.4352 12.61164599258400
Source of the keplerian elements: AFSPC